Location: Yellowknife
(62.4500°N, 114.3500°W)
Time: 22:28:17
(UTC-06:00)

Amateur Radio Satellites - All Passes

Search period start: 22 October 2017 21:58
Search period end: 23 October 2017 21:58
Location: Yellowknife, 62.4500°N, 114.3500°W

Satellite Date Start Highest point End Downlink Frequencies (MHz)
Time Altitude Azimuth
BEESAT 2 22 Oct 22:03:26 22:06:15 18° 237° (WSW) 22:09:03 435.950
STARS 22 Oct 22:05:35 22:08:52 20° 316° (NW) 22:12:07 437.465
AAUSAT CUBESAT 2 22 Oct 22:07:23 22:09:54 16° 276° (W) 22:12:25 437.432
O/OREOS (USA 219) 22 Oct 22:12:40 22:17:12 61° 123° (ESE) 22:21:46 437.305
UWE-3 22 Oct 22:15:18 22:18:06 15° 279° (W) 22:20:54 435.000/436.395/437.385
LO-87 22 Oct 22:17:00 22:20:00 25° 55° (NE) 22:23:02 145.935 - 145.965
Oscar 11 22 Oct 22:17:01 22:20:37 25° 269° (W) 22:24:15 .
FO-29 22 Oct 22:21:42 22:28:11 52° 99° (E) 22:35:24 435.910
HO-68 22 Oct 22:37:03 22:39:36 12° 291° (WNW) 22:42:10 435.675
YUBILEINY 22 Oct 22:39:26 22:47:29 42° 277° (W) 22:55:33 435.215
VELOX 1 22 Oct 22:45:38 22:48:29 17° 41° (NE) 22:51:20 145.980
STRAND 1 22 Oct 22:47:36 22:52:34 47° 302° (WNW) 22:57:30 437.568
AO-73 22 Oct 23:00:11 23:01:55 12° 282° (WNW) 23:03:40 145.935
ESTCUBE 1 22 Oct 23:06:28 23:10:49 51° 62° (ENE) 23:15:11 437.505/2401.250
UNISAT 6 22 Oct 23:07:30 23:11:49 36° 94° (E) 23:16:03 437.425
DELFI C3 22 Oct 23:07:50 23:11:09 26° 268° (W) 23:14:29 145.870
EO-88 22 Oct 23:09:46 23:13:07 34° 263° (W) 23:16:30 145.990 - 145.960
SPROUT 22 Oct 23:14:01 23:17:35 26° 51° (NE) 23:21:09 437.525
PRISM 22 Oct 23:21:04 23:24:24 23° 91° (E) 23:27:42 437.425
TIGRISAT 22 Oct 23:21:28 23:25:55 42° 97° (E) 23:30:15 435.000
Max Valier Satellite 22 Oct 23:26:48 23:29:45 22° 270° (W) 23:32:42 145.860
DX 1 22 Oct 23:42:48 23:45:38 17° 41° (NE) 23:48:29 434.975-435.025
LO-87 22 Oct 23:49:34 23:53:10 64° 256° (WSW) 23:56:49 145.935 - 145.965
O/OREOS (USA 219) 22 Oct 23:52:24 23:56:50 45° 326° (NNW) 00:01:18 437.305
50 SAT 22 Oct 23:52:28 23:54:05 13° 46° (NE) 23:55:42 437.505
QB50P2 22 Oct 23:57:04 23:58:02 11° 78° (ENE) 23:58:59 145.880/145.840
UKube-1 23 Oct 00:00:49 00:03:37 17° 41° (NE) 00:06:25 .
RS-15 23 Oct 00:03:03 00:11:55 24° 99° (E) 00:20:40 29.354- 29.394
FO-29 23 Oct 00:07:02 00:13:26 59° 300° (WNW) 00:20:36 435.910
VELOX 1 23 Oct 00:19:52 00:24:09 53° 63° (ENE) 00:28:29 145.980
STRAND 1 23 Oct 00:27:19 00:30:46 18° 325° (NW) 00:34:13 437.568
AIST 2D 23 Oct 00:34:40 00:37:49 31° 96° (E) 00:40:57 435.315
YUBILEINY 23 Oct 00:37:24 00:41:53 15° 303° (WNW) 00:46:22 435.215
ITUPSAT 1 23 Oct 00:39:59 00:42:20 14° 29° (NNE) 00:44:41 437.325
ESTCUBE 1 23 Oct 00:43:38 00:47:49 37° 264° (W) 00:52:01 437.505/2401.250
UNISAT 6 23 Oct 00:44:11 00:48:46 55° 297° (WNW) 00:53:15 437.425
SPROUT 23 Oct 00:48:48 00:53:07 82° 252° (WSW) 00:57:28 437.525
BEESAT 23 Oct 00:52:58 00:55:40 15° 33° (NNE) 00:58:22 436.000
PRISM 23 Oct 00:55:59 01:00:08 76° 291° (WNW) 01:04:16 437.425
TIGRISAT 23 Oct 00:58:14 01:02:44 48° 299° (WNW) 01:07:08 435.000
EO-79 23 Oct 01:04:46 01:08:32 29° 93° (E) 01:12:17 145.935-145.965
POLYITAN 1 23 Oct 01:10:19 01:14:11 31° 94° (E) 01:18:01 437.675
DX 1 23 Oct 01:16:50 01:21:04 54° 63° (ENE) 01:25:21 434.975-435.025
Oscar 19 23 Oct 01:18:46 01:19:12 10° 74° (ENE) 01:19:39 437.125/150
MOZHAYETS 4 23 Oct 01:19:06 01:22:09 18° 41° (NE) 01:25:13
50 SAT 23 Oct 01:22:33 01:25:46 58° 67° (ENE) 01:29:03 437.505
LO-87 23 Oct 01:25:50 01:27:20 12° 277° (W) 01:28:51 145.935 - 145.965
QB50P2 23 Oct 01:30:44 01:34:55 47° 100° (E) 01:39:02 145.880/145.840
NANOSAT C BR1 23 Oct 01:30:55 01:34:59 40° 98° (E) 01:39:01 145.865
O/OREOS (USA 219) 23 Oct 01:33:20 01:37:15 26° 351° (N) 01:41:12 437.305
UKube-1 23 Oct 01:34:41 01:38:54 54° 63° (ENE) 01:43:08 .
BUGSAT 1 23 Oct 01:36:26 01:39:21 18° 86° (E) 01:42:15 437.445
DUCHIFAT 1 23 Oct 01:39:57 01:44:03 43° 99° (E) 01:48:06 145.980
CUBESAT XI-V 23 Oct 01:39:58 01:41:39 12° 30° (NNE) 01:43:19 437.345
FO-29 23 Oct 01:52:27 01:57:35 26° 323° (NW) 02:03:11 435.910
VELOX 1 23 Oct 01:56:46 02:00:49 35° 264° (W) 02:04:55 145.980
STRAND 1 23 Oct 02:07:20 02:08:14 10° 349° (N) 02:09:07 437.568
AIST 2D 23 Oct 02:07:48 02:11:06 41° 296° (WNW) 02:14:24 435.315
RS-15 23 Oct 02:09:56 02:21:46 56° 126° (SE) 02:33:24 29.354- 29.394
Gurwin Techsat 1B 23 Oct 02:11:19 02:14:59 18° 83° (E) 02:18:39 435.225
ITUPSAT 1 23 Oct 02:14:42 02:18:59 33° 52° (NE) 02:23:17 437.325
UNISAT 6 23 Oct 02:21:31 02:24:41 18° 319° (NW) 02:27:49 437.425
SPROUT 23 Oct 02:26:41 02:29:42 18° 274° (W) 02:32:44 437.525
KKS-1 23 Oct 02:26:49 02:28:20 12° 29° (NNE) 02:29:50 437.445
BEESAT 23 Oct 02:27:57 02:32:23 38° 55° (NE) 02:36:50 436.000
PRISM 23 Oct 02:31:50 02:34:53 20° 313° (NW) 02:37:57 437.425
TIGRISAT 23 Oct 02:35:35 02:38:32 17° 321° (NW) 02:41:25 435.000
EO-79 23 Oct 02:40:23 02:44:37 62° 295° (WNW) 02:48:50 145.935-145.965
POLYITAN 1 23 Oct 02:46:00 02:50:14 57° 296° (WNW) 02:54:25 437.675
STARS 23 Oct 02:52:03 02:52:44 10° 26° (NNE) 02:53:24 437.465
DX 1 23 Oct 02:53:32 02:57:30 34° 264° (W) 03:01:30 434.975-435.025
MOZHAYETS 4 23 Oct 02:54:01 02:58:31 53° 62° (ENE) 03:03:02
Oscar 19 23 Oct 02:55:12 03:00:03 39° 97° (E) 03:04:51 437.125/150
50 SAT 23 Oct 02:55:48 02:58:23 21° 268° (W) 03:00:58 437.505
QB50P2 23 Oct 03:06:41 03:10:42 39° 301° (WNW) 03:14:41 145.880/145.840
NANOSAT C BR1 23 Oct 03:06:42 03:10:47 44° 299° (WNW) 03:14:50 145.865
BUGSAT 1 23 Oct 03:11:07 03:15:25 80° 107° (ESE) 03:19:39 437.445
UKube-1 23 Oct 03:11:13 03:15:09 34° 264° (W) 03:19:07 .
CUBESAT XI-V 23 Oct 03:13:48 03:17:49 30° 53° (NE) 03:21:50 437.345
O/OREOS (USA 219) 23 Oct 03:13:52 03:17:56 29° 16° (NNE) 03:21:58 437.305
DUCHIFAT 1 23 Oct 03:15:44 03:19:46 42° 300° (WNW) 03:23:46 145.980
ITAMSAT 1 23 Oct 03:35:47 03:37:48 12° 76° (ENE) 03:39:48 435.822/435.867
FO-29 23 Oct 03:37:20 03:40:51 16° 347° (NNW) 03:44:35 435.910
AIST 2D 23 Oct 03:42:32 03:43:30 11° 317° (NW) 03:44:28 435.315
STRAND 1 23 Oct 03:44:11 03:45:25 11° 14° (NNE) 03:46:39 437.568
M-CUBED/EXP-1 PRIME 23 Oct 03:44:31 03:47:47 38° 108° (ESE) 03:51:15 437.505
AO-7 23 Oct 03:48:05 03:54:34 24° 83° (E) 04:01:01 .
Gurwin Techsat 1B 23 Oct 03:50:39 03:55:59 67° 106° (ESE) 04:01:17 435.225
ITUPSAT 1 23 Oct 03:51:44 03:56:34 71° 253° (WSW) 04:01:25 437.325
KKS-1 23 Oct 03:59:51 04:03:41 29° 51° (NE) 04:07:34 437.445
BEESAT 23 Oct 04:05:19 04:10:04 58° 257° (WSW) 04:14:50 436.000
EO-79 23 Oct 04:16:47 04:19:43 18° 316° (NW) 04:22:38 145.935-145.965
RS-15 23 Oct 04:21:22 04:33:49 90° 340° (NNW) 04:45:54 29.354- 29.394
POLYITAN 1 23 Oct 04:22:30 04:25:17 17° 317° (NW) 04:28:05 437.675
STARS 23 Oct 04:24:10 04:27:47 25° 48° (NE) 04:31:24 437.465
MOZHAYETS 4 23 Oct 04:31:34 04:35:54 37° 264° (W) 04:40:13
Oscar 19 23 Oct 04:34:35 04:39:38 57° 299° (WNW) 04:44:39 437.125/150
NO-84 23 Oct 04:41:13 04:44:10 18° 152° (SSE) 04:47:04 435.350 FM
NANOSAT C BR1 23 Oct 04:43:16 04:45:38 15° 321° (NW) 04:47:57 145.865
QB50P2 23 Oct 04:43:27 04:45:32 13° 323° (NW) 04:47:37 145.880/145.840
BUGSAT 1 23 Oct 04:46:53 04:50:25 26° 309° (NW) 04:53:55 437.445
CUBESAT XI-V 23 Oct 04:50:18 04:54:55 73° 255° (WSW) 04:59:33 437.345
DUCHIFAT 1 23 Oct 04:52:19 04:54:31 14° 322° (NW) 04:56:43 145.980
O/OREOS (USA 219) 23 Oct 04:53:35 04:58:10 58° 40° (NE) 05:02:44 437.305
ITAMSAT 1 23 Oct 05:13:37 05:18:40 45° 99° (E) 05:23:42 435.822/435.867
M-CUBED/EXP-1 PRIME 23 Oct 05:19:03 05:22:18 39° 307° (NW) 05:25:42 437.505
STRAND 1 23 Oct 05:19:17 05:22:56 20° 37° (NE) 05:26:36 437.568
FO-29 23 Oct 05:20:20 05:23:46 16° 13° (NNE) 05:27:22 435.910
Gurwin Techsat 1B 23 Oct 05:30:51 05:35:45 38° 307° (NW) 05:40:39 435.225
ITUPSAT 1 23 Oct 05:31:59 05:35:16 18° 276° (W) 05:38:35 437.325
KKS-1 23 Oct 05:35:29 05:39:57 75° 252° (WSW) 05:44:28 437.445
AO-7 23 Oct 05:40:46 05:49:04 66° 108° (ESE) 05:57:20 .
BEESAT 23 Oct 05:46:14 05:48:53 15° 279° (W) 05:51:34 436.000
STARS 23 Oct 05:59:15 06:03:41 90° 211° (SSW) 06:08:11 437.465
CUTE-I 23 Oct 06:07:03 06:08:45 11° 74° (ENE) 06:10:26 437.470
Oscar 19 23 Oct 06:14:24 06:18:10 21° 321° (NW) 06:21:54 437.125/150
NO-84 23 Oct 06:17:06 06:20:45 28° 173° (S) 06:24:17 435.350 FM
DOVE 4 23 Oct 06:21:57 06:26:31 37° 95° (E) 06:31:17 437.250
CUBESAT XI-V 23 Oct 06:30:01 06:33:08 18° 276° (W) 06:36:14 437.345
XW-2F 23 Oct 06:30:29 06:31:59 12° 82° (E) 06:33:30 145.980 - 146.000
O/OREOS (USA 219) 23 Oct 06:33:11 06:37:33 42° 243° (WSW) 06:41:53 437.305
RS-15 23 Oct 06:34:39 06:47:04 81° 7° (N) 06:58:58 29.354- 29.394
LilacSat-2 23 Oct 06:41:50 06:44:16 16° 86° (E) 06:46:43 437.200
XW-2D 23 Oct 06:44:47 06:47:15 17° 87° (E) 06:49:43 145.860 - 145.880
SO-50 23 Oct 06:46:21 06:48:02 12° 114° (ESE) 06:49:42 436.795
ITAMSAT 1 23 Oct 06:53:12 06:58:18 53° 301° (WNW) 07:03:23 435.822/435.867
M-CUBED/EXP-1 PRIME 23 Oct 06:54:29 06:56:04 13° 328° (NNW) 06:57:41 437.505
STRAND 1 23 Oct 06:56:14 07:01:15 53° 60° (ENE) 07:06:17 437.568
XW-2B 23 Oct 06:58:07 07:00:59 20° 89° (E) 07:03:48 145.730 - 145.750
FO-29 23 Oct 07:02:19 07:07:02 27° 39° (NE) 07:12:12 435.910
UNISAT 6 23 Oct 07:07:40 07:09:21 12° 29° (NNE) 07:11:02 437.425
Gurwin Techsat 1B 23 Oct 07:11:19 07:14:33 17° 330° (NNW) 07:17:47 435.225
KKS-1 23 Oct 07:14:17 07:17:17 18° 274° (W) 07:20:20 437.445
TIGRISAT 23 Oct 07:21:01 07:23:06 13° 32° (NNE) 07:25:09 435.000
XW-2C 23 Oct 07:21:19 07:24:40 30° 94° (E) 07:28:01 145.795 - 145.815
AO-7 23 Oct 07:33:50 07:41:53 57° 313° (NW) 07:49:56 .
STARS 23 Oct 07:37:17 07:40:39 21° 272° (W) 07:44:03 437.465
CUBEBUG 2 23 Oct 07:44:06 07:46:51 15° 80° (E) 07:49:33 437.445
CUTE-I 23 Oct 07:45:11 07:50:19 42° 97° (E) 07:55:25 437.470
CUTE 1.7 + AOD 2 23 Oct 07:46:12 07:49:15 19° 86° (E) 07:52:19 437.475
SEEDS 23 Oct 07:47:26 07:49:45 14° 82° (E) 07:52:02 437.485
NO-84 23 Oct 07:53:59 07:57:28 26° 194° (SSW) 08:00:47 435.350 FM
Oscar 19 23 Oct 07:54:30 07:55:51 11° 345° (NNW) 07:57:14 437.125/150
KAITUO 1B 23 Oct 07:55:46 07:59:21 45° 100° (E) 08:02:55 145.475/437.950
HO-68 23 Oct 07:57:13 08:03:33 31° 89° (E) 08:09:50 435.675
DOVE 4 23 Oct 07:59:40 08:04:27 59° 295° (WNW) 08:09:30 437.250
AAUSAT CUBESAT 2 23 Oct 08:02:37 08:03:24 10° 78° (ENE) 08:04:10 437.432
XW-2F 23 Oct 08:03:10 08:06:54 62° 104° (ESE) 08:10:36 145.980 - 146.000
YUBILEINY 23 Oct 08:04:19 08:10:14 21° 64° (ENE) 08:16:10 435.215
NUDT-PHONESAT 23 Oct 08:04:30 08:08:07 51° 101° (E) 08:11:42 437.300
O/OREOS (USA 219) 23 Oct 08:15:05 08:15:50 10° 265° (W) 08:16:35 437.305
UWE-3 23 Oct 08:15:17 08:18:12 17° 82° (E) 08:21:04 435.000/436.395/437.385
LilacSat-2 23 Oct 08:15:22 08:19:10 86° 107° (ESE) 08:22:57 437.200
XW-2D 23 Oct 08:18:14 08:22:01 88° 103° (ESE) 08:25:46 145.860 - 145.880
SO-50 23 Oct 08:23:13 08:27:25 40° 136° (SE) 08:31:40 436.795
XW-2B 23 Oct 08:31:50 08:35:37 75° 290° (WNW) 08:39:21 145.730 - 145.750
ITAMSAT 1 23 Oct 08:33:08 08:36:53 20° 324° (NW) 08:40:38 435.822/435.867
STRAND 1 23 Oct 08:35:41 08:40:36 44° 262° (W) 08:45:34 437.568
UNISAT 6 23 Oct 08:40:46 08:44:49 29° 52° (NE) 08:48:51 437.425
FO-29 23 Oct 08:45:48 08:51:19 72° 64° (ENE) 08:57:33 435.910
PRISM 23 Oct 08:46:43 08:49:33 18° 45° (NE) 08:52:24 437.425
XW-2A 23 Oct 08:47:27 08:50:08 21° 92° (E) 08:52:47 145.665 - 145.685
RS-15 23 Oct 08:47:42 08:59:52 76° 219° (SW) 09:11:25 29.354- 29.394
Gurwin Techsat 1B 23 Oct 08:51:31 08:52:39 11° 355° (N) 08:53:47 435.225
TIGRISAT 23 Oct 08:54:25 08:58:36 32° 54° (NE) 09:02:48 435.000
XW-2C 23 Oct 08:55:25 08:59:03 48° 296° (WNW) 09:02:40 145.795 - 145.815
AO-73 23 Oct 08:57:22 09:00:32 19° 85° (E) 09:03:37 145.935
PCSat 23 Oct 09:01:40 09:06:21 30° 120° (ESE) 09:11:03 145.827
CUBEBUG 2 23 Oct 09:19:46 09:24:27 62° 102° (ESE) 09:28:59 437.445
ZACube-1 23 Oct 09:21:09 09:25:03 29° 92° (E) 09:28:50 437.345
CUTE 1.7 + AOD 2 23 Oct 09:21:28 09:25:44 88° 119° (ESE) 09:29:57 437.475
SEEDS 23 Oct 09:22:05 09:26:15 65° 103° (ESE) 09:30:25 437.485
CUTE-I 23 Oct 09:25:20 09:30:36 57° 299° (WNW) 09:35:52 437.470
QB50P2 23 Oct 09:26:01 09:27:31 12° 33° (NNE) 09:29:02 145.880/145.840
AO-7 23 Oct 09:26:21 09:33:24 33° 339° (NNW) 09:40:28 .
NANOSAT C BR1 23 Oct 09:26:26 09:27:23 11° 31° (NNE) 09:28:21 145.865
KAITUO 1B 23 Oct 09:29:56 09:33:17 33° 301° (WNW) 09:36:37 145.475/437.950
NO-84 23 Oct 09:31:49 09:33:52 14° 215° (SW) 09:35:52 435.350 FM
Oscar 19 23 Oct 09:32:39 09:33:12 10° 9° (N) 09:33:45 437.125/150
DUCHIFAT 1 23 Oct 09:35:00 09:36:10 11° 32° (NNE) 09:37:19 145.980
AAUSAT CUBESAT 2 23 Oct 09:35:52 09:39:53 48° 100° (E) 09:43:54 437.432
XW-2F 23 Oct 09:37:38 09:40:48 26° 304° (NW) 09:43:56 145.980 - 146.000
DOVE 4 23 Oct 09:37:56 09:41:25 20° 317° (NW) 09:45:02 437.250
NUDT-PHONESAT 23 Oct 09:38:38 09:41:51 29° 302° (WNW) 09:45:04 437.300
HO-68 23 Oct 09:44:58 09:52:15 87° 112° (ESE) 09:59:30 435.675
AIST 2D 23 Oct 09:47:33 09:49:34 15° 48° (NE) 09:51:34 435.315
LilacSat-2 23 Oct 09:50:09 09:53:03 21° 308° (NW) 09:55:56 437.200
UWE-3 23 Oct 09:50:56 09:55:32 70° 104° (ESE) 09:59:59 435.000/436.395/437.385
Oscar 11 23 Oct 09:51:59 09:55:56 33° 95° (E) 09:59:51 .
XW-2D 23 Oct 09:52:57 09:55:47 21° 309° (NW) 09:58:36 145.860 - 145.880
YUBILEINY 23 Oct 09:56:47 10:05:12 57° 91° (E) 10:13:40 435.215
SO-50 23 Oct 10:03:08 10:07:39 87° 332° (NNW) 10:12:16 436.795
XW-2B 23 Oct 10:06:42 10:09:16 18° 311° (NW) 10:11:50 145.730 - 145.750
ITAMSAT 1 23 Oct 10:13:04 10:14:41 11° 348° (NNW) 10:16:18 435.822/435.867
UNISAT 6 23 Oct 10:16:27 10:21:10 80° 253° (WSW) 10:25:55 437.425
STRAND 1 23 Oct 10:19:28 10:21:12 12° 285° (WNW) 10:22:56 437.568
XW-2A 23 Oct 10:19:49 10:23:09 58° 293° (WNW) 10:26:26 145.665 - 145.685
PRISM 23 Oct 10:20:11 10:24:14 67° 66° (ENE) 10:28:18 437.425
EO-88 23 Oct 10:28:03 10:29:49 13° 84° (E) 10:31:36 145.990 - 145.960
Gurwin Techsat 1B 23 Oct 10:28:20 10:30:37 13° 19° (NNE) 10:32:54 435.225
TIGRISAT 23 Oct 10:30:20 10:35:03 69° 255° (WSW) 10:39:47 435.000
XW-2C 23 Oct 10:30:39 10:32:30 13° 317° (NW) 10:34:20 145.795 - 145.815
FO-29 23 Oct 10:32:04 10:37:04 34° 270° (W) 10:42:36 435.910
EO-79 23 Oct 10:32:50 10:36:10 22° 48° (NE) 10:39:31 145.935-145.965
DELFI C3 23 Oct 10:32:53 10:36:08 23° 91° (E) 10:39:21 145.870
AO-73 23 Oct 10:33:01 10:37:29 84° 109° (ESE) 10:41:47 145.935
POLYITAN 1 23 Oct 10:38:23 10:41:50 24° 50° (NE) 10:45:18 437.675
PCSat 23 Oct 10:43:48 10:49:15 83° 143° (SE) 10:54:44 145.827
Max Valier Satellite 23 Oct 10:44:53 10:47:50 22° 90° (E) 10:50:44 145.860
CUBEBUG 2 23 Oct 10:56:37 11:00:53 35° 305° (NW) 11:05:03 437.445
ZACube-1 23 Oct 10:57:17 11:01:42 63° 294° (WNW) 11:05:59 437.345
CUTE 1.7 + AOD 2 23 Oct 10:57:47 11:01:09 23° 309° (NW) 11:04:29 437.475
SEEDS 23 Oct 10:58:06 11:01:44 29° 305° (NW) 11:05:21 437.485
NANOSAT C BR1 23 Oct 10:58:16 11:01:57 29° 53° (NE) 11:05:38 145.865
QB50P2 23 Oct 10:58:25 11:02:14 32° 56° (NE) 11:06:05 145.880/145.840
RS-15 23 Oct 11:00:15 11:10:48 38° 248° (WSW) 11:20:56 29.354- 29.394
BUGSAT 1 23 Oct 11:02:47 11:05:19 16° 40° (NE) 11:07:51 437.445
CUTE-I 23 Oct 11:05:49 11:09:49 22° 322° (NW) 11:13:49 437.470
DUCHIFAT 1 23 Oct 11:06:59 11:10:42 30° 54° (NE) 11:14:26 145.980
Oscar 19 23 Oct 11:07:29 11:10:46 17° 33° (NNE) 11:14:04 437.125/150
AAUSAT CUBESAT 2 23 Oct 11:11:30 11:15:19 37° 301° (WNW) 11:19:07 437.432
AO-7 23 Oct 11:17:34 11:24:14 28° 6° (N) 11:30:55 .
AIST 2D 23 Oct 11:18:42 11:22:10 65° 69° (ENE) 11:25:40 435.315
UWE-3 23 Oct 11:27:42 11:31:44 30° 306° (NW) 11:35:38 435.000/436.395/437.385
Oscar 11 23 Oct 11:28:05 11:32:18 53° 296° (WNW) 11:36:30 .
HO-68 23 Oct 11:32:57 11:39:33 40° 317° (NW) 11:46:08 435.675
M-CUBED/EXP-1 PRIME 23 Oct 11:33:28 11:35:31 16° 37° (NE) 11:37:36 437.505
SO-50 23 Oct 11:43:52 11:48:24 67° 3° (N) 11:53:00 436.795
ITAMSAT 1 23 Oct 11:50:38 11:52:11 11° 12° (NNE) 11:53:45 435.822/435.867
YUBILEINY 23 Oct 11:53:32 12:02:08 60° 297° (WNW) 12:10:51 435.215
XW-2A 23 Oct 11:53:35 11:55:14 13° 314° (NW) 11:56:54 145.665 - 145.685
UNISAT 6 23 Oct 11:55:09 11:58:37 20° 275° (W) 12:02:06 437.425
PRISM 23 Oct 11:56:30 11:59:54 25° 268° (W) 12:03:19 437.425
EO-88 23 Oct 12:00:32 12:04:10 70° 104° (ESE) 12:07:48 145.990 - 145.960
nSIGHT-1 23 Oct 12:04:05 12:05:00 11° 167° (SSE) 12:05:54 .
Gurwin Techsat 1B 23 Oct 12:04:46 12:09:03 26° 43° (NE) 12:13:21 435.225
EO-79 23 Oct 12:07:09 12:11:27 83° 70° (ENE) 12:15:47 145.935-145.965
DELFI C3 23 Oct 12:07:19 12:11:17 69° 291° (WNW) 12:15:14 145.870
TIGRISAT 23 Oct 12:09:29 12:12:36 17° 277° (W) 12:15:44 435.000
AO-73 23 Oct 12:09:40 12:13:19 26° 309° (NW) 12:16:53 145.935
POLYITAN 1 23 Oct 12:12:52 12:17:12 90° 200° (SSW) 12:21:32 437.675
BEESAT 3 23 Oct 12:13:12 12:15:02 13° 117° (ESE) 12:16:52 437.485
Max Valier Satellite 23 Oct 12:18:21 12:22:02 67° 292° (WNW) 12:25:41 145.860
ESTCUBE 1 23 Oct 12:24:34 12:28:17 25° 90° (E) 12:32:00 437.505/2401.250
PCSat 23 Oct 12:27:38 12:33:01 57° 348° (NNW) 12:38:24 145.827
NANOSAT C BR1 23 Oct 12:33:07 12:37:23 71° 255° (WSW) 12:41:41 145.865
QB50P2 23 Oct 12:33:36 12:37:51 61° 257° (WSW) 12:42:09 145.880/145.840
CUBEBUG 2 23 Oct 12:34:08 12:36:22 13° 327° (NNW) 12:38:34 437.445
ZACube-1 23 Oct 12:34:10 12:37:17 19° 316° (NW) 12:40:21 437.345
SEEDS 23 Oct 12:35:42 12:36:17 10° 327° (NNW) 12:36:52 437.485
BUGSAT 1 23 Oct 12:35:46 12:39:52 49° 62° (ENE) 12:44:00 437.445
LO-87 23 Oct 12:38:53 12:42:17 35° 97° (E) 12:45:40 145.935 - 145.965
DUCHIFAT 1 23 Oct 12:41:53 12:46:08 67° 255° (WSW) 12:50:25 145.980
Oscar 19 23 Oct 12:44:13 12:49:05 44° 56° (NE) 12:53:57 437.125/150
ISS 23 Oct 12:44:52 12:46:22 13° 174° (S) 12:47:53 437.550
CUTE-I 23 Oct 12:46:16 12:48:13 12° 346° (NNW) 12:50:10 437.470
AAUSAT CUBESAT 2 23 Oct 12:48:11 12:49:48 12° 323° (NW) 12:51:25 437.432
AIST 2D 23 Oct 12:52:59 12:55:42 21° 269° (W) 12:58:26 435.315
Oscar 11 23 Oct 13:04:58 13:07:41 17° 318° (NW) 13:10:23 .
UWE-3 23 Oct 13:05:19 13:06:58 12° 329° (NNW) 13:08:37 435.000/436.395/437.385
M-CUBED/EXP-1 PRIME 23 Oct 13:06:13 13:09:27 62° 58° (ENE) 13:12:43 437.505
AO-7 23 Oct 13:07:47 13:15:16 40° 33° (NNE) 13:22:46 .
RS-15 23 Oct 13:14:59 13:19:15 13° 276° (W) 13:23:27 29.354- 29.394
HO-68 23 Oct 13:20:23 13:25:45 23° 342° (NNW) 13:31:07 435.675
SO-50 23 Oct 13:24:30 13:29:05 84° 204° (SSW) 13:33:43 436.795
ITAMSAT 1 23 Oct 13:26:17 13:29:59 20° 36° (NE) 13:33:41 435.822/435.867
EO-88 23 Oct 13:34:36 13:37:33 23° 306° (NW) 13:40:28 145.990 - 145.960
VELOX 1 23 Oct 13:35:13 13:38:50 24° 90° (E) 13:42:26 145.980
nSIGHT-1 23 Oct 13:38:54 13:40:17 12° 187° (S) 13:41:39 .
BEESAT 2 23 Oct 13:40:31 13:43:40 22° 126° (SE) 13:46:50 435.950
DELFI C3 23 Oct 13:42:45 13:45:27 18° 313° (NW) 13:48:10 145.870
Gurwin Techsat 1B 23 Oct 13:43:04 13:48:22 73° 66° (ENE) 13:53:43 435.225
EO-79 23 Oct 13:44:24 13:47:45 22° 271° (W) 13:51:08 145.935-145.965
AO-85 23 Oct 13:46:17 13:48:59 18° 122° (ESE) 13:51:47 145.980
BEESAT 3 23 Oct 13:47:53 13:51:44 44° 139° (SE) 13:55:34 437.485
POLYITAN 1 23 Oct 13:50:22 13:53:35 20° 272° (W) 13:56:49 437.675
Max Valier Satellite 23 Oct 13:52:57 13:55:17 16° 313° (NW) 13:57:36 145.860
YUBILEINY 23 Oct 13:53:45 14:01:05 29° 326° (NNW) 14:08:28 435.215
SPROUT 23 Oct 13:59:10 14:03:19 43° 99° (E) 14:07:26 437.525
ESTCUBE 1 23 Oct 14:01:05 14:05:36 77° 292° (WNW) 14:10:05 437.505/2401.250
50 SAT 23 Oct 14:03:53 14:05:24 12° 86° (E) 14:06:55 437.505
NANOSAT C BR1 23 Oct 14:11:15 14:13:53 16° 276° (W) 14:16:33 145.865
BUGSAT 1 23 Oct 14:11:25 14:15:22 37° 263° (W) 14:19:21 437.445
PCSat 23 Oct 14:11:43 14:17:07 57° 13° (NNE) 14:22:29 145.827
QB50P2 23 Oct 14:12:18 14:14:33 14° 278° (W) 14:16:48 145.880/145.840
LO-87 23 Oct 14:12:19 14:15:46 39° 298° (WNW) 14:19:11 145.935 - 145.965
DUCHIFAT 1 23 Oct 14:20:09 14:22:38 15° 277° (W) 14:25:07 145.980
ISS 23 Oct 14:20:45 14:21:51 11° 194° (SSW) 14:22:56 437.550
Oscar 19 23 Oct 14:23:20 14:28:23 54° 258° (WSW) 14:33:28 437.125/150
CUTE-I 23 Oct 14:24:35 14:26:16 11° 11° (N) 14:27:57 437.470
DOVE 4 23 Oct 14:27:34 14:28:59 11° 28° (NNE) 14:30:25 437.250
DX 1 23 Oct 14:30:14 14:33:43 22° 90° (E) 14:37:11 434.975-435.025
M-CUBED/EXP-1 PRIME 23 Oct 14:41:42 14:44:15 21° 259° (W) 14:46:49 437.505
UKube-1 23 Oct 14:46:48 14:50:10 21° 89° (E) 14:53:31 .
AO-7 23 Oct 14:59:01 15:07:18 79° 58° (ENE) 15:15:38 .
ITAMSAT 1 23 Oct 15:03:30 15:08:32 51° 59° (ENE) 15:13:38 435.822/435.867
SO-50 23 Oct 15:05:07 15:09:13 33° 228° (SW) 15:13:22 436.795
HO-68 23 Oct 15:06:22 15:11:26 21° 8° (N) 15:16:31 435.675
VELOX 1 23 Oct 15:11:20 15:15:48 80° 292° (WNW) 15:20:16 145.980
BEESAT 2 23 Oct 15:16:50 15:20:52 68° 149° (SSE) 15:24:57 435.950
Gurwin Techsat 1B 23 Oct 15:24:05 15:28:49 32° 268° (W) 15:33:35 435.225
AO-85 23 Oct 15:24:44 15:28:39 59° 145° (SE) 15:32:50 145.980
BEESAT 3 23 Oct 15:25:08 15:29:10 77° 340° (NNW) 15:33:13 437.485
50 SAT 23 Oct 15:34:59 15:38:18 76° 107° (ESE) 15:41:37 437.505
SPROUT 23 Oct 15:35:10 15:39:16 42° 300° (WNW) 15:43:20 437.525
ESTCUBE 1 23 Oct 15:38:25 15:41:52 22° 313° (NW) 15:45:20 437.505/2401.250
ITUPSAT 1 23 Oct 15:41:52 15:44:43 15° 82° (E) 15:47:33 437.325
LO-87 23 Oct 15:47:10 15:48:20 11° 319° (NW) 15:49:30 145.935 - 145.965
BEESAT 23 Oct 15:54:36 15:58:00 19° 85° (E) 16:01:22 436.000
YUBILEINY 23 Oct 15:55:20 16:01:35 21° 359° (N) 16:07:52 435.215
PCSat 23 Oct 15:55:23 16:00:52 83° 217° (SW) 16:06:18 145.827
CUTE-I 23 Oct 16:00:51 16:04:35 20° 35° (NE) 16:08:20 437.470
DOVE 4 23 Oct 16:01:35 16:05:21 28° 51° (NE) 16:09:19 437.250
LilacSat-2 23 Oct 16:02:18 16:03:34 11° 40° (NE) 16:04:49 437.200
XW-2D 23 Oct 16:04:39 16:05:54 11° 40° (NE) 16:07:09 145.860 - 145.880
DX 1 23 Oct 16:06:02 16:10:27 84° 291° (WNW) 16:14:51 434.975-435.025
Oscar 19 23 Oct 16:06:06 16:08:54 15° 280° (W) 16:11:43 437.125/150
MOZHAYETS 4 23 Oct 16:14:59 16:18:56 27° 91° (E) 16:22:52
XW-2B 23 Oct 16:17:34 16:19:21 13° 43° (NE) 16:21:08 145.730 - 145.750
UKube-1 23 Oct 16:22:24 16:26:46 86° 287° (WNW) 16:31:06 .
CUBESAT XI-V 23 Oct 16:36:24 16:39:06 15° 82° (E) 16:41:48 437.345
XW-2C 23 Oct 16:40:03 16:42:36 17° 48° (NE) 16:45:08 145.795 - 145.815
ITAMSAT 1 23 Oct 16:43:08 16:48:09 46° 261° (W) 16:53:13 435.822/435.867
VELOX 1 23 Oct 16:48:16 16:51:45 23° 313° (NW) 16:55:13 145.980
HO-68 23 Oct 16:51:14 16:57:22 32° 34° (NE) 17:03:32 435.675
AO-7 23 Oct 16:53:01 17:00:49 43° 263° (W) 17:08:41 .
BEESAT 2 23 Oct 16:54:40 16:58:44 65° 350° (N) 17:02:49 435.950
BEESAT 3 23 Oct 17:03:01 17:07:02 61° 4° (N) 17:11:01 437.485
AO-85 23 Oct 17:05:02 17:09:05 69° 349° (NNW) 17:13:26 145.980
50 SAT 23 Oct 17:07:48 17:10:16 20° 307° (NW) 17:12:44 437.505
SPROUT 23 Oct 17:11:58 17:14:15 14° 322° (NW) 17:16:31 437.525
KAITUO 1B 23 Oct 17:12:48 17:15:44 22° 53° (NE) 17:18:41 145.475/437.950
CUTE 1.7 + AOD 2 23 Oct 17:15:18 17:17:48 15° 42° (NE) 17:20:16 437.475
SEEDS 23 Oct 17:16:08 17:17:53 12° 37° (NE) 17:19:38 437.485
KKS-1 23 Oct 17:16:55 17:18:28 12° 79° (E) 17:20:02 437.445
CUBEBUG 2 23 Oct 17:17:51 17:20:37 16° 37° (NE) 17:23:22 437.445
ITUPSAT 1 23 Oct 17:18:46 17:23:34 61° 104° (ESE) 17:28:19 437.325
XW-2F 23 Oct 17:20:36 17:23:52 29° 57° (ENE) 17:27:08 145.980 - 146.000
NUDT-PHONESAT 23 Oct 17:20:37 17:23:39 24° 55° (NE) 17:26:41 437.300
BEESAT 23 Oct 17:31:46 17:36:36 75° 107° (ESE) 17:41:23 436.000
LilacSat-2 23 Oct 17:33:25 17:36:57 38° 61° (ENE) 17:40:31 437.200
XW-2D 23 Oct 17:35:40 17:39:12 38° 61° (ENE) 17:42:44 145.860 - 145.880
DOVE 4 23 Oct 17:38:18 17:42:41 78° 254° (WSW) 17:47:22 437.250
CUTE-I 23 Oct 17:38:32 17:43:40 49° 58° (ENE) 17:48:50 437.470
PCSat 23 Oct 17:39:04 17:43:46 30° 240° (WSW) 17:48:27 145.827
DX 1 23 Oct 17:42:42 17:46:10 23° 313° (NW) 17:49:38 434.975-435.025
UWE-3 23 Oct 17:47:58 17:50:47 16° 39° (NE) 17:53:35 435.000/436.395/437.385
XW-2B 23 Oct 17:49:08 17:52:46 47° 64° (ENE) 17:56:25 145.730 - 145.750
MOZHAYETS 4 23 Oct 17:51:57 17:56:33 71° 293° (WNW) 18:01:06
YUBILEINY 23 Oct 17:54:52 18:02:09 28° 32° (NNE) 18:09:28 435.215
XW-2A 23 Oct 17:58:26 17:59:31 11° 43° (NE) 18:00:36 145.665 - 145.685
UKube-1 23 Oct 17:58:53 18:02:20 23° 312° (NW) 18:05:46 .
XW-2C 23 Oct 18:12:27 18:16:14 72° 71° (ENE) 18:20:01 145.795 - 145.815
CUBESAT XI-V 23 Oct 18:12:49 18:17:25 63° 104° (ESE) 18:22:00 437.345
ITAMSAT 1 23 Oct 18:26:54 18:29:00 12° 283° (WNW) 18:31:07 435.822/435.867
AO-73 23 Oct 18:28:35 18:31:30 17° 42° (NE) 18:34:23 145.935
BEESAT 2 23 Oct 18:32:43 18:36:49 69° 14° (NNE) 18:40:52 435.950
HO-68 23 Oct 18:37:06 18:44:14 69° 59° (ENE) 18:51:24 435.675
BEESAT 3 23 Oct 18:40:44 18:44:48 84° 207° (SSW) 18:48:47 437.485
AO-85 23 Oct 18:45:38 18:49:48 69° 12° (NNE) 18:54:19 145.980
KAITUO 1B 23 Oct 18:45:41 18:49:24 77° 254° (WSW) 18:53:08 145.475/437.950
SEEDS 23 Oct 18:48:45 18:52:37 38° 59° (ENE) 18:56:29 437.485
CUTE 1.7 + AOD 2 23 Oct 18:48:45 18:52:51 50° 63° (ENE) 18:56:57 437.475
CUBEBUG 2 23 Oct 18:51:45 18:56:14 42° 59° (ENE) 19:00:44 437.445
KKS-1 23 Oct 18:51:45 18:56:08 48° 100° (E) 19:00:30 437.445
AO-7 23 Oct 18:52:02 18:56:11 14° 289° (WNW) 19:00:22 .
ZACube-1 23 Oct 18:52:02 18:55:37 23° 49° (NE) 18:59:10 437.345
NUDT-PHONESAT 23 Oct 18:53:33 18:57:15 68° 256° (WSW) 19:00:57 437.300
XW-2F 23 Oct 18:54:07 18:57:49 55° 257° (WSW) 19:01:32 145.980 - 146.000
ITUPSAT 1 23 Oct 18:56:50 19:01:15 37° 306° (NW) 19:05:38 437.325
AAUSAT CUBESAT 2 23 Oct 19:01:30 19:05:02 28° 55° (NE) 19:08:36 437.432
LilacSat-2 23 Oct 19:07:40 19:11:16 39° 262° (W) 19:14:53 437.200
XW-2D 23 Oct 19:09:51 19:13:25 39° 262° (W) 19:17:00 145.860 - 145.880
BEESAT 23 Oct 19:09:52 19:14:06 31° 309° (NW) 19:18:18 436.000
STARS 23 Oct 19:13:48 19:18:00 38° 98° (E) 19:22:10 437.465
DOVE 4 23 Oct 19:18:11 19:21:14 18° 277° (W) 19:24:25 437.250
CUTE-I 23 Oct 19:18:37 19:23:48 50° 260° (W) 19:29:03 437.470
UWE-3 23 Oct 19:21:52 19:26:20 46° 61° (ENE) 19:30:47 435.000/436.395/437.385
Oscar 11 23 Oct 19:22:04 19:25:34 25° 51° (NE) 19:29:05 .
XW-2B 23 Oct 19:23:41 19:27:06 31° 265° (W) 19:30:32 145.730 - 145.750
XW-2A 23 Oct 19:28:14 19:31:30 44° 65° (ENE) 19:34:46 145.665 - 145.685
MOZHAYETS 4 23 Oct 19:29:38 19:33:07 22° 315° (NW) 19:36:34
XW-2C 23 Oct 19:47:54 19:50:50 21° 270° (W) 19:53:47 145.795 - 145.815
CUBESAT XI-V 23 Oct 19:50:29 19:54:37 34° 305° (NW) 19:58:45 437.345
YUBILEINY 23 Oct 19:52:33 20:01:14 57° 61° (ENE) 20:09:54 435.215
DELFI C3 23 Oct 19:55:25 19:57:48 16° 45° (NE) 20:00:11 145.870
Max Valier Satellite 23 Oct 20:02:06 20:03:56 13° 44° (NE) 20:05:47 145.860
AO-73 23 Oct 20:02:31 20:06:57 52° 64° (ENE) 20:11:20 145.935
BEESAT 2 23 Oct 20:10:33 20:14:35 57° 216° (SW) 20:18:33 435.950
BEESAT 3 23 Oct 20:18:30 20:22:00 29° 229° (SW) 20:25:26 437.485
KAITUO 1B 23 Oct 20:21:55 20:24:02 14° 275° (W) 20:26:10 145.475/437.950
SEEDS 23 Oct 20:24:15 20:28:17 47° 260° (W) 20:32:20 437.485
CUTE 1.7 + AOD 2 23 Oct 20:25:00 20:28:53 34° 265° (W) 20:32:46 437.475
HO-68 23 Oct 20:25:33 20:32:24 46° 262° (W) 20:39:20 435.675
AO-85 23 Oct 20:26:03 20:30:17 62° 215° (SW) 20:34:51 145.980
ZACube-1 23 Oct 20:26:48 20:31:24 81° 71° (ENE) 20:35:57 437.345
CUBEBUG 2 23 Oct 20:28:12 20:32:50 50° 260° (W) 20:37:30 437.445
KKS-1 23 Oct 20:28:28 20:32:42 41° 302° (WNW) 20:36:55 437.445
NUDT-PHONESAT 23 Oct 20:30:03 20:31:50 13° 276° (W) 20:33:36 437.300
XW-2F 23 Oct 20:31:44 20:32:48 11° 279° (W) 20:33:52 145.980 - 146.000
STRAND 1 23 Oct 20:34:30 20:39:09 32° 93° (E) 20:43:46 437.568
ITUPSAT 1 23 Oct 20:35:22 20:38:00 15° 328° (NNW) 20:40:36 437.325
AAUSAT CUBESAT 2 23 Oct 20:36:11 20:40:16 65° 256° (WSW) 20:44:23 437.432
BEESAT 23 Oct 20:48:28 20:50:40 13° 332° (NNW) 20:52:51 436.000
STARS 23 Oct 20:50:11 20:54:30 50° 299° (WNW) 20:58:48 437.465
O/OREOS (USA 219) 23 Oct 20:56:30 21:00:16 26° 109° (ESE) 21:04:03 437.305
Oscar 11 23 Oct 20:56:58 21:01:19 87° 256° (WSW) 21:05:41 .
UWE-3 23 Oct 20:58:22 21:02:52 44° 262° (W) 21:07:21 435.000/436.395/437.385
XW-2A 23 Oct 21:01:22 21:04:22 28° 265° (W) 21:07:22 145.665 - 145.685
CUTE-I 23 Oct 21:02:34 21:05:12 14° 283° (WNW) 21:07:50 437.470
EO-88 23 Oct 21:15:06 21:18:20 30° 58° (ENE) 21:21:32 145.990 - 145.960
FO-29 23 Oct 21:26:45 21:32:36 30° 88° (E) 21:38:58 435.910
DELFI C3 23 Oct 21:28:01 21:31:52 57° 66° (ENE) 21:35:46 145.870
CUBESAT XI-V 23 Oct 21:28:51 21:30:52 13° 328° (NNW) 21:32:54 437.345
Max Valier Satellite 23 Oct 21:33:26 21:37:02 49° 65° (ENE) 21:40:40 145.860
AO-73 23 Oct 21:39:07 21:43:21 37° 264° (W) 21:47:35 145.935
BEESAT 2 23 Oct 21:48:53 21:51:39 18° 238° (WSW) 21:54:23 435.950
LO-87 23 Oct 21:52:52 21:55:23 18° 50° (NE) 21:57:54 145.935 - 145.965
SPROUT 23 Oct 21:55:13 21:56:33 11° 32° (NNE) 21:57:52 437.525
